Regional Weather Roundup
Issued by NWS

Home | Current Version | Previous Version | Text Only | Print | Product List | Glossary On
Versions: 1 2 3 4 5 6 7 8 9 10 11 12 13 14 15 16 17 18 19 20 21 22 23 24 25 26 27 28 29 30 31 32 33 34 35 36 37 38 39 40 41 42 43 44 45 46 47 48 49 50
000
ASHW40 PHFO 210230
RWRHI

WEATHER ROUNDUP FOR HAWAII
NATIONAL WEATHER SERVICE HONOLULU HI
400 PM HST WED AUG 20 2014

THIS IS AN AUTOMATED REPORT THAT HAS NOT BEEN QUALITY CONTROLLED.

NOTE..."FAIR" INDICATES FEW OR NO CLOUDS BELOW 12,000 FEET WITH NO
SIGNIFICANT WEATHER AND/OR OBSTRUCTIONS TO VISIBILITY.

* - THESE SITES REPORT LIMITED FIELDS

HIZ001>004-210300-
KAUAI-NIIHAU-

CITY           SKY/WX    TMP DP  RH WIND       PRES   REMARKS
LIHUE APT      MOSUNNY   83  69  62 NE13      29.97F
PORT ALLEN*      N/A     86 N/A N/A E16G23      N/A
POIPU*           N/A     84 N/A N/A NE9G20      N/A
PRINCEVILLE*   NOT AVBL
KOKOLE POINT*  NOT AVBL
MOLOAA DAIRY*  NOT AVBL
WAIMEA HTS*    NOT AVBL
PUU OPAE*      NOT AVBL
PUU LUA*       NOT AVBL
MAKAHA RIDGE*  NOT AVBL
$$

HIZ005>011-210300-
OAHU-

CITY           SKY/WX    TMP DP  RH WIND       PRES   REMARKS
HONOLULU       MOSUNNY   88  66  48 NE15      29.93S HX  90
KALAELOA       MOSUNNY   86  66  51 E9        29.93F
KANEOHE MCB    MOSUNNY   84  69  60 NE9       29.95F
WHEELER FIELD  FAIR      84  67  57 E15       29.95S
BELLOWS*         N/A    N/A N/A N/A NE10        N/A
KAHUKU*          N/A    N/A N/A N/A NE8G16      N/A
WHEELER*       NOT AVBL
WAIANAE HARBOR NOT AVBL
DILLINGHAM*      N/A     90  70  51 N3G14       N/A  HX  95
KAHUKU TRN*      N/A     81  70  69 E10G17      N/A
KAWAILOA*      NOT AVBL
KII*             N/A     82  72  69 E12         N/A
MAKUA RANGE*     N/A     84  70  61 W8          N/A
OAHU FOREST NW NOT AVBL
SCHOFIELD BRK*   N/A     81  64  57 MISG        N/A
SCHOFIELD S*   NOT AVBL
WAIANAE VLY*   NOT AVBL
KUAOKALA*      NOT AVBL
HONOULIUULI*   NOT AVBL
MOKUOLOE IS*     N/A    N/A N/A N/A MISG        N/A
PALEHUA*       NOT AVBL
WAIAWA PHB*    NOT AVBL
$$

HIZ012>013-210300-
MOLOKAI-

CITY           SKY/WX    TMP DP  RH WIND       PRES   REMARKS
MOLOKAI AIRPT  PTSUNNY   82  70  66 NE12      29.94S
KALAUPAPA      NOT AVBL
MAKAPULAPAI*   NOT AVBL
MOLOKAI 1*     NOT AVBL
PUU ALII*        N/A     64  63  96 SE1G8       N/A
$$

HIZ016-210300-
KAHOOLAWE-

CITY           SKY/WX    TMP DP  RH WIND       PRES   REMARKS
KAHOOLAWE*     NOT AVBL
HAKIOAWA*      NOT AVBL
HONOKANAIA*      N/A     87  70  56 E15G31    29.94S HX  92
KANELOA*         N/A     82  70  65 E13G29    30.04F
KEALIALALO*    NOT AVBL
LUA MAKIKA*    NOT AVBL
$$

HIZ014>015-210300-
LANAI-

CITY           SKY/WX    TMP DP  RH WIND       PRES   REMARKS
LANAI CITY     CLOUDY    78  68  71 NW5       30.00S
LANAI 1*       NOT AVBL
$$

HIZ017>028-210300-
MAUI-

CITY           SKY/WX    TMP DP  RH WIND       PRES   REMARKS
KAHULUI        PTSUNNY   83  67  58 NE17G24   29.93F
KAPALUA-W MAUI PTSUNNY   79  68  69 NE13      29.95
HANA AIRPORT   CLOUDY    81  70  69 E6        29.98S
HANA*            N/A     82 N/A N/A E12         N/A
HALEAKALA SUMM   N/A     59  12  15 S7          N/A
MAALAEA BAY*   NOT AVBL
HALEAKALA*     NOT AVBL
KAUPO GAP*     NOT AVBL
KULA 1*          N/A     59  58  95 NW2G8       N/A
$$

HIZ023>026-210300-
BIG ISLAND OF HAWAII COAST AND LOWER SLOPES-

CITY           SKY/WX    TMP DP  RH WIND       PRES   REMARKS
KAILUA KONA    SUNNY     86  70  58 W9        29.90F HX  90
HILO           CLOUDY    80  74  81 E6        29.94F
HONOKAA*       NOT AVBL
KAWAIHAE MWT*    N/A     84 N/A N/A W9          N/A
KAWAIHAE*        N/A     81 N/A N/A W8          N/A
SOUTH POINT*     N/A     79 N/A N/A E15G22      N/A
UPOLU AIRPORT*   N/A    N/A N/A N/A NE18G24     N/A
KAMUELA*       MOCLDY    73  66  78 NE17      30.04S
HAKALAU*         N/A     62  56  82 SE5G12      N/A
KALOKO-HONOKO*   N/A     84  72  65 W8          N/A
PALI 2*          N/A     81  68  65 SE13G21     N/A
KEALAKOMO*       N/A     84  73  70 E18G29      N/A  HX  91
KAUPULEHU*     NOT AVBL
KAPAPALA*        N/A     79  70  74 E5G12       N/A
LOWER KAHUKU*  NOT AVBL
PUHE CS*       NOT AVBL
PUHO CS*         N/A     86  71  60 W5G12       N/A  HX  91
PTA KEAMUKU*     N/A     70  64  83 W9          N/A
WAIKOLOA*      NOT AVBL
$$

HIZ027>028-210300-
BIG ISLAND OF HAWAII INTERIOR AND SUMMMITS-

CITY           SKY/WX    TMP DP  RH WIND       PRES   REMARKS
BRADSHAW FIELD PTSUNNY   66  59  77 W10       30.29R
MK VISITOR CEN NOT AVBL
MAUNA KEA*       N/A     45  12  26 E10         N/A
MAUNA LOA*       N/A     48  43  81 MISG        N/A
MAUNA LOA 1*   NOT AVBL
PTA KIPUKA*      N/A     72  59  64 N6G14       N/A
PTA RANGE 17*    N/A     68  59  73 NW10G18     N/A
PTA WEST*        N/A     68  63  83 NW10G18     N/A
NENE CABIN*    NOT AVBL
AHUMOA*        NOT AVBL
PTA PORTABLE*  NOT AVBL
PUU MALI*      NOT AVBL
$$

HIC003-210300-
NORTHWEST ISLANDS-

CITY           SKY/WX    TMP DP  RH WIND       PRES   REMARKS
MIDWAY ISLAND  SUNNY     88  73  62 SW10      29.98F HX  96
MIDWAY NOS*    NOT AVBL
FRENCH FRIGATE NOT AVBL
$$

PHZ110>124-180-210300-
BUOY REPORTS

STATION/POSITION TIME  TEMP    WIND        PRES    WAVE   SWELL
                       AIR SEA DIR/SP/G            HT/PER HT/DIR
                 (UTC) (F)     (DEG/KT/KT) (MB)    (FT/S) (FT/D)
BUOY 51001       NOT AVBL
BUOY 51101       NOT AVBL
BUOY 51100       0200   78 79   90/ 14/ 16 1015.2
BUOY 51003       0200   81 82   80/  8/ 12 1013.0F   5/17   5
BUOY 51004       0124   80 80   80/ 14/ 16 1012.2F   5/ 8   3/110
BARBERS PT BUOY  NOT AVBL
WAIMEA BAY BUOY  NOT AVBL
KAILUA BAY BUOY  0200      81                N/A     4/ 8   2/120
LANAI BUOY       NOT AVBL
BARBERS PT 2     0200      81                N/A     4/18   2/210
PAUWELA MAUI     0200      80                N/A     4/ 8   2/ 80
HILO             NOT AVBL
KANEOHE BAY BUOY 0200      80                N/A     4/ 8
HANALEI KAUAI    NOT AVBL
KAHULUI HARBOR   0200   80 81   40/ 13/ 17 1013.5S
HONOLULU HARBOR  0200   84      60/  5/  8 1013.8R
KILO NALU        NOT AVBL
HILO HARBOR      0200   79      50/  6/  9 1013.5R
MOKUOLOE         0200      83   60/  8/ 11 1014.5S
NAWILIWILI       0200      82                N/A
WHOTS BUOY       NOT AVBL
BUOY 51028       NOT AVBL
$$

......................KEY........................................
  SKY/WX - SKY CONDITIONS/PRESENT WEATHER
  TMP    - TEMPERATURE IN FAHRENHEIT
  DWPT   - DEWPOINT IN FAHRENHEIT
  RH     - RELATIVE HUMIDITY IN PERCENT
  WIND   - DIRECTION AND SPEED /MPH FOR ISLANDS...KTS FOR BUOYS/
  PRES   - MEAN SEA LEVEL PRESSURE IN INCHES OF HG
  VSB    - VISIBILITY IN MILES
  HX     - HEAT INDEX
  WCI    - WIND CHILL INDEX
  VRB    - VARIABLE WIND DIRECTION
  N/A    - NOT AVAILABLE



USA.gov is the U.S. government's official web portal to all federal, state and local government web resources and services.